When you browse on this site, cookies collect data to enhance your experience and personalize the content and advertising you see.
Visit our Privacy Policy to learn more. By continuing to use the site, you agree to this use of cookies and data.

Stündliche Wetter Czaszkowo

Heute, 15 August, Samstag

Zeit Temperatur Niederschläge Wind Luftdruck Luftfeuchtigkeit
00:00 +17°C° 0 mm 2 m/S 748 mmHg 80%
01:00 +16°C° 0 mm 2 m/S 748 mmHg 80%
02:00 +16°C° 0 mm 2 m/S 748 mmHg 80%
03:00 +16°C° 0 mm 2 m/S 748 mmHg 81%
04:00 +15°C° 0 mm 2 m/S 748 mmHg 82%
05:00 +17°C° 0 mm 2 m/S 748 mmHg 78%
06:00 +18°C° 0 mm 2 m/S 748 mmHg 75%
07:00 +20°C° 0 mm 2 m/S 749 mmHg 69%
08:00 +23°C° 0 mm 2 m/S 749 mmHg 63%
09:00 +24°C° 0 mm 2 m/S 749 mmHg 58%
10:00 +26°C° 0 mm 3 m/S 749 mmHg 52%
11:00 +27°C° 0 mm 2 m/S 749 mmHg 49%
12:00 +27°C° 0 mm 2 m/S 749 mmHg 46%
13:00 +27°C° 0 mm 1 m/S 749 mmHg 45%
14:00 +27°C° 0 mm 1 m/S 749 mmHg 45%
15:00 +27°C° 0 mm 1 m/S 749 mmHg 46%
16:00 +27°C° 0 mm 1 m/S 749 mmHg 46%
17:00 +25°C° 0 mm 1 m/S 749 mmHg 51%
18:00 +23°C° 0 mm 1 m/S 749 mmHg 57%
19:00 +22°C° 0 mm 1 m/S 749 mmHg 62%
20:00 +21°C° 0 mm 1 m/S 749 mmHg 64%
21:00 +20°C° 0 mm 1 m/S 749 mmHg 65%
22:00 +19°C° 0 mm 1 m/S 749 mmHg 67%
23:00 +19°C° 0 mm 1 m/S 749 mmHg 69%

Morgen, 16 August, Sonntag

Zeit Temperatur Niederschläge Wind Luftdruck Luftfeuchtigkeit
00:00 +18°C° 0 mm 1 m/S 749 mmHg 72%
01:00 +16°C° 0 mm 1 m/S 749 mmHg 74%
02:00 +16°C° 0 mm 1 m/S 749 mmHg 75%
03:00 +16°C° 0 mm 1 m/S 749 mmHg 76%
04:00 +15°C° 0 mm 0 m/S 749 mmHg 77%
05:00 +18°C° 0 mm 1 m/S 749 mmHg 72%
06:00 +20°C° 0 mm 1 m/S 750 mmHg 67%
07:00 +22°C° 0 mm 1 m/S 750 mmHg 62%
08:00 +23°C° 0 mm 1 m/S 750 mmHg 57%
09:00 +25°C° 0 mm 1 m/S 750 mmHg 52%
10:00 +27°C° 0 mm 1 m/S 750 mmHg 47%
11:00 +27°C° 0 mm 1 m/S 750 mmHg 46%
12:00 +28°C° 0 mm 1 m/S 750 mmHg 44%
13:00 +29°C° 0 mm 1 m/S 750 mmHg 42%
14:00 +28°C° 0 mm 1 m/S 749 mmHg 43%
15:00 +28°C° 0 mm 1 m/S 749 mmHg 43%
16:00 +28°C° 0 mm 2 m/S 749 mmHg 44%
17:00 +26°C° 0 mm 1 m/S 749 mmHg 51%
18:00 +24°C° 0 mm 1 m/S 748 mmHg 59%
19:00 +22°C° 0 mm 1 m/S 748 mmHg 66%
20:00 +21°C° 0 mm 1 m/S 748 mmHg 67%
21:00 +20°C° 0 mm 1 m/S 749 mmHg 68%
22:00 +20°C° 0 mm 1 m/S 749 mmHg 70%
23:00 +19°C° 0 mm 1 m/S 748 mmHg 72%

übermorgen, 17 August, Montag

Zeit Temperatur Niederschläge Wind Luftdruck Luftfeuchtigkeit
00:00 +19°C° 0 mm 1 m/S 748 mmHg 74%
01:00 +18°C° 0 mm 1 m/S 748 mmHg 76%
02:00 +18°C° 0 mm 1 m/S 748 mmHg 77%
03:00 +16°C° 0 mm 1 m/S 748 mmHg 78%
04:00 +16°C° 0 mm 1 m/S 748 mmHg 79%
05:00 +19°C° 0 mm 1 m/S 748 mmHg 74%
06:00 +19°C° 0 mm 2 m/S 748 mmHg 70%
07:00 +20°C° 0 mm 2 m/S 748 mmHg 65%
08:00 +23°C° 0 mm 2 m/S 748 mmHg 59%
09:00 +25°C° 0 mm 3 m/S 747 mmHg 53%
10:00 +26°C° 0 mm 3 m/S 747 mmHg 47%
11:00 +26°C° 0 mm 3 m/S 747 mmHg 47%
12:00 +27°C° 0 mm 3 m/S 747 mmHg 47%
13:00 +27°C° 0 mm 3 m/S 746 mmHg 46%
14:00 +27°C° 0 mm 3 m/S 746 mmHg 49%
15:00 +26°C° 0 mm 3 m/S 746 mmHg 51%
16:00 +26°C° 0 mm 2 m/S 745 mmHg 53%
17:00 +25°C° 0.1 mm 2 m/S 745 mmHg 57%
18:00 +23°C° 0.1 mm 2 m/S 745 mmHg 60%
19:00 +21°C° 0.1 mm 2 m/S 745 mmHg 63%
20:00 +20°C° 0.4 mm 2 m/S 745 mmHg 66%
21:00 +20°C° 0.4 mm 2 m/S 744 mmHg 69%
22:00 +19°C° 0.4 mm 2 m/S 744 mmHg 72%
23:00 +18°C° 0.1 mm 2 m/S 744 mmHg 72%

18 August, Dienstag

Zeit Temperatur Niederschläge Wind Luftdruck Luftfeuchtigkeit
00:00 +18°C° 0.1 mm 2 m/S 744 mmHg 73%
01:00 +17°C° 0.1 mm 2 m/S 744 mmHg 74%
02:00 +17°C° 0 mm 2 m/S 743 mmHg 78%
03:00 +16°C° 0 mm 2 m/S 743 mmHg 81%
04:00 +16°C° 0 mm 2 m/S 742 mmHg 84%
05:00 +17°C° 0 mm 2 m/S 742 mmHg 81%
06:00 +18°C° 0 mm 2 m/S 742 mmHg 79%
07:00 +20°C° 0 mm 2 m/S 742 mmHg 76%
08:00 +21°C° 0 mm 3 m/S 742 mmHg 72%
09:00 +24°C° 0 mm 3 m/S 742 mmHg 67%
10:00 +25°C° 0 mm 3 m/S 742 mmHg 62%
11:00 +26°C° 0 mm 2 m/S 742 mmHg 60%
12:00 +27°C° 0 mm 2 m/S 742 mmHg 58%
13:00 +28°C° 0 mm 2 m/S 741 mmHg 55%
14:00 +27°C° 0.1 mm 2 m/S 741 mmHg 58%
15:00 +27°C° 0.1 mm 2 m/S 741 mmHg 60%
16:00 +27°C° 0.1 mm 2 m/S 741 mmHg 62%
17:00 +25°C° 0.1 mm 2 m/S 740 mmHg 69%
18:00 +23°C° 0.1 mm 2 m/S 740 mmHg 77%
19:00 +21°C° 0.1 mm 2 m/S 740 mmHg 84%
20:00 +20°C° 0 mm 2 m/S 740 mmHg 87%
21:00 +19°C° 0 mm 2 m/S 740 mmHg 90%
22:00 +19°C° 0 mm 1 m/S 740 mmHg 93%
23:00 +19°C° 0 mm 1 m/S 740 mmHg 94%

19 August, Mittwoch

Zeit Temperatur Niederschläge Wind Luftdruck Luftfeuchtigkeit
00:00 +18°C° 0 mm 1 m/S 740 mmHg 95%
01:00 +18°C° 0 mm 1 m/S 740 mmHg 95%
02:00 +18°C° 0 mm 1 m/S 740 mmHg 95%
03:00 +16°C° 0 mm 1 m/S 740 mmHg 96%
04:00 +16°C° 0 mm 1 m/S 739 mmHg 96%
05:00 +18°C° 0 mm 1 m/S 740 mmHg 91%
06:00 +19°C° 0 mm 1 m/S 740 mmHg 87%
07:00 +20°C° 0 mm 1 m/S 740 mmHg 83%
08:00 +22°C° 0 mm 1 m/S 740 mmHg 77%
09:00 +23°C° 0 mm 1 m/S 740 mmHg 71%
10:00 +24°C° 0 mm 1 m/S 740 mmHg 64%
11:00 +25°C° 0 mm 2 m/S 740 mmHg 64%
12:00 +25°C° 0 mm 2 m/S 740 mmHg 63%
13:00 +25°C° 0 mm 2 m/S 740 mmHg 63%
14:00 +24°C° 0.1 mm 3 m/S 740 mmHg 66%
15:00 +24°C° 0.1 mm 3 m/S 740 mmHg 69%
16:00 +22°C° 0.1 mm 3 m/S 740 mmHg 72%
17:00 +21°C° 0.3 mm 3 m/S 740 mmHg 77%
18:00 +20°C° 0.3 mm 3 m/S 740 mmHg 82%
19:00 +18°C° 0.3 mm 3 m/S 740 mmHg 86%
20:00 +18°C° 0 mm 3 m/S 740 mmHg 87%
21:00 +18°C° 0 mm 3 m/S 740 mmHg 87%
22:00 +18°C° 0 mm 3 m/S 740 mmHg 87%
23:00 +18°C° 0 mm 3 m/S 740 mmHg 88%

20 August, Donnerstag

Zeit Temperatur Niederschläge Wind Luftdruck Luftfeuchtigkeit
00:00 +17°C° 0 mm 2 m/S 740 mmHg 90%
01:00 +17°C° 0 mm 2 m/S 740 mmHg 91%
02:00 +17°C° 0 mm 2 m/S 741 mmHg 91%
03:00 +17°C° 0 mm 2 m/S 741 mmHg 92%
04:00 +17°C° 0 mm 2 m/S 741 mmHg 93%
05:00 +17°C° 0 mm 2 m/S 741 mmHg 91%
06:00 +18°C° 0 mm 3 m/S 741 mmHg 90%
07:00 +19°C° 0 mm 3 m/S 742 mmHg 88%
08:00 +20°C° 0.1 mm 3 m/S 742 mmHg 81%
09:00 +21°C° 0.1 mm 3 m/S 742 mmHg 74%
10:00 +24°C° 0.1 mm 3 m/S 743 mmHg 68%
11:00 +23°C° 0.4 mm 4 m/S 743 mmHg 66%
12:00 +25°C° 0.4 mm 4 m/S 743 mmHg 64%
13:00 +25°C° 0.4 mm 4 m/S 743 mmHg 62%
14:00 +26°C° 0.1 mm 4 m/S 743 mmHg 61%
15:00 +26°C° 0.1 mm 4 m/S 743 mmHg 60%
16:00 +26°C° 0.1 mm 3 m/S 744 mmHg 59%
17:00 +24°C° 0 mm 3 m/S 744 mmHg 66%
18:00 +21°C° 0 mm 2 m/S 744 mmHg 73%
19:00 +20°C° 0 mm 1 m/S 744 mmHg 79%
20:00 +20°C° 0 mm 1 m/S 745 mmHg 82%
21:00 +19°C° 0 mm 1 m/S 745 mmHg 84%
22:00 +18°C° 0 mm 1 m/S 745 mmHg 87%
23:00 +18°C° 0 mm 1 m/S 745 mmHg 87%
Mehr zeigen